Weather History for Whitefield, NH

Change the Weather History Date:

Friday, April 12, 2013

  Actual Average Record
Temperature  
Mean Temperature 32 °F -  
Max Temperature 35 °F 49 °F 71 °F (2006)
Min Temperature 28 °F 23 °F 14 °F (1997)
Degree Days  
Heating Degree Days 34    
Moisture  
Dew Point 24 °F    
Average Humidity 72    
Maximum Humidity 86    
Minimum Humidity 40    
Precipitation  
Precipitation 0.38 in - - ()
Sea Level Pressure  
Sea Level Pressure 30.03 in    
Wind  
Wind Speed 8 mph (ESE)    
Max Wind Speed 14 mph    
Max Gust Speed 23 mph    
Visibility 6 miles    
Events Rain , Snow    
Averages and records for this station are not official NWS values.
T = Trace of Precipitation, MM = Missing Value Source: NWS Daily Summary

Daily Weather History Graph

Daily Weather History Graph

Search for Another Location

Airport:

Trip Planner

Search our weather history database for the weather conditions in past years. The results will help you decide how hot, cold, wet, or windy it might be!

Date:

Astronomy

Apr. 12, 2013 Rise Set
Actual Time 6:07 AM EDT 7:27 PM EDT
Civil Twilight 5:37 AM EDT 7:57 PM EDT
Nautical Twilight 5:01 AM EDT 8:33 PM EDT
Astronomical Twilight 4:22 AM EDT 9:12 PM EDT
Moon 7:10 AM EDT (4/12) 10:01 PM EDT (4/12)
Length of Visible Light 14h 20m
Length of Day
13h 20m
Waxing Crescent, 5% of the Moon is Illuminated
Apr 12
Waxing Crescent
Apr 18
First Quarter
Apr 25
Full
May 2
Last Quarter
May 9
New

Hourly Weather History & Observations

Time (EDT) Temp. Windchill Dew Point Humidity Pressure Visibility Wind Dir Wind Speed Gust Speed Precip Events Conditions
12:52 AM 33.1 °F 28.7 °F 17.1 °F 52% 30.20 in 10.0 mi NE 4.6 mph - N/A   Mostly Cloudy
1:52 AM 34.0 °F 26.0 °F 12.0 °F 40% 30.19 in 10.0 mi East 10.4 mph - N/A   Overcast
2:52 AM 33.1 °F 24.4 °F 12.0 °F 42% 30.17 in 10.0 mi East 11.5 mph 20.7 mph N/A   Overcast
3:52 AM 33.1 °F 24.4 °F 12.9 °F 43% 30.17 in 10.0 mi East 11.5 mph 19.6 mph N/A   Overcast
4:52 AM 33.1 °F 26.1 °F 14.0 °F 46% 30.19 in 10.0 mi East 8.1 mph - N/A   Overcast
5:52 AM 32.0 °F 22.1 °F 17.1 °F 54% 30.20 in 9.0 mi East 13.8 mph - 0.00 in Snow Light Snow
6:13 AM 30.2 °F 20.8 °F 21.2 °F 69% 30.16 in 2.5 mi East 11.5 mph - 0.00 in Snow Light Snow
6:23 AM 28.4 °F 18.5 °F 23.0 °F 80% 30.16 in 1.5 mi East 11.5 mph - 0.00 in Snow Light Snow
6:41 AM 28.4 °F 19.7 °F 24.8 °F 86% 30.16 in 2.0 mi East 9.2 mph - 0.02 in Snow Light Snow
6:52 AM 28.9 °F 19.8 °F 24.1 °F 82% 30.20 in 2.0 mi East 10.4 mph - 0.02 in Snow Light Snow
6:59 AM 28.4 °F 19.1 °F 24.8 °F 86% 30.15 in 1.2 mi East 10.4 mph - 0.00 in Snow Light Snow
7:06 AM 28.4 °F 19.7 °F 24.8 °F 86% 30.15 in 1.0 mi East 9.2 mph - 0.01 in Snow Light Snow
7:12 AM 28.4 °F 19.7 °F 24.8 °F 86% 30.15 in 1.5 mi East 9.2 mph - 0.01 in Snow Light Snow
7:18 AM 28.4 °F 20.4 °F 24.8 °F 86% 30.15 in 3.0 mi East 8.1 mph - 0.01 in Snow Light Snow
7:52 AM 30.0 °F 21.7 °F 23.0 °F 75% 30.18 in 10.0 mi East 9.2 mph - 0.01 in   Overcast
8:52 AM 30.0 °F 22.4 °F 21.9 °F 72% 30.16 in 7.0 mi East 8.1 mph - 0.01 in   Overcast
9:52 AM 30.0 °F 23.2 °F 21.9 °F 72% 30.12 in 10.0 mi East 6.9 mph - 0.00 in   Overcast
10:52 AM 32.0 °F - 23.0 °F 69% 30.07 in 10.0 mi Calm Calm - N/A   Overcast
11:52 AM 33.1 °F - 21.9 °F 64% 30.03 in 10.0 mi Calm Calm - N/A   Overcast
12:52 PM 33.1 °F 30.0 °F 26.1 °F 75% 30.01 in 4.0 mi NNW 3.5 mph - 0.03 in Rain Light Rain
1:04 PM 33.8 °F 29.6 °F 24.8 °F 70% 29.96 in 5.0 mi NNE 4.6 mph - 0.01 in Rain Light Freezing Rain
1:26 PM 32.0 °F - 26.6 °F 80% 29.94 in 2.5 mi Calm Calm - 0.05 in Rain Light Freezing Rain
1:52 PM 32.0 °F 28.7 °F 28.0 °F 85% 29.95 in 1.8 mi NNW 3.5 mph - 0.13 in Rain Light Freezing Rain
2:03 PM 33.8 °F 28.6 °F 28.4 °F 81% 29.90 in 2.5 mi North 5.8 mph - 0.04 in Rain Light Freezing Rain
2:29 PM 33.8 °F 26.4 °F 28.4 °F 81% 29.91 in 2.5 mi SW 9.2 mph - 0.09 in Rain Light Rain
2:38 PM 33.8 °F 26.4 °F 26.6 °F 75% 29.92 in 2.5 mi SSE 9.2 mph 23.0 mph 0.11 in Rain Light Freezing Rain
2:52 PM 33.1 °F 25.5 °F 27.0 °F 78% 29.97 in 3.0 mi South 9.2 mph 19.6 mph 0.14 in Rain Light Freezing Rain
3:04 PM 33.8 °F 24.3 °F 24.8 °F 70% 29.93 in 6.0 mi SSW 13.8 mph 19.6 mph 0.00 in Snow Light Snow
3:52 PM 33.1 °F 26.1 °F 24.1 °F 70% 29.95 in 10.0 mi SSW 8.1 mph 18.4 mph 0.00 in   Overcast
4:52 PM 34.0 °F 27.2 °F 26.1 °F 73% 29.91 in 10.0 mi South 8.1 mph 19.6 mph 0.00 in Rain Light Rain
5:52 PM 35.1 °F 27.9 °F 26.1 °F 70% 29.91 in 10.0 mi SSE 9.2 mph 21.9 mph 0.00 in Rain Light Rain
6:52 PM 35.1 °F 26.4 °F 26.1 °F 70% 29.90 in 10.0 mi South 12.7 mph 21.9 mph 0.00 in   Overcast
7:52 PM 34.0 °F - 27.0 °F 75% 29.88 in 10.0 mi Calm Calm - 0.00 in Rain Light Rain
8:52 PM 34.0 °F - 27.0 °F 75% 29.89 in 10.0 mi Calm Calm - 0.00 in Rain Light Rain
9:52 PM 33.1 °F 27.7 °F 28.0 °F 82% 29.88 in 10.0 mi SE 5.8 mph - 0.01 in Rain Light Rain
10:48 PM 33.8 °F 30.8 °F 28.4 °F 81% 29.83 in 6.0 mi ESE 3.5 mph - 0.02 in Rain Light Freezing Rain
10:52 PM 33.1 °F 30.0 °F 28.0 °F 82% 29.87 in 8.0 mi Variable 3.5 mph - 0.03 in Rain Light Freezing Rain
11:16 PM 33.8 °F 29.6 °F 28.4 °F 81% 29.82 in 10.0 mi South 4.6 mph - 0.00 in   Overcast
11:52 PM 34.0 °F 29.8 °F 28.0 °F 79% 29.86 in 10.0 mi SE 4.6 mph - 0.00 in   Overcast